Time,TemperatureF,DewpointF,PressureIn,WindDirection,WindDirectionDegrees,WindSpeedMPH,WindSpeedGustMPH,Humidity,HourlyPrecipIn,Conditions,Clouds,dailyrainin,SoftwareType,DateUTC
2013-01-12 05:02:00,19.0,8.0,30.21,WNW,291,1.0,-999.0,62,-99.99,,,-99.99,,2013-01-12 12:02:00,
2013-01-12 05:11:00,19.0,8.0,30.21,WNW,291,1.0,-999.0,62,-99.99,,,-99.99,,2013-01-12 12:11:00,
2013-01-12 05:22:00,18.0,8.0,30.21,West,277,3.0,-999.0,64,-99.99,,,-99.99,,2013-01-12 12:22:00,
2013-01-12 05:32:00,18.0,8.0,30.20,West,265,2.0,-999.0,63,-99.99,,,-99.99,,2013-01-12 12:32:00,
2013-01-12 05:42:00,18.0,8.0,30.20,West,265,2.0,-999.0,63,-99.99,,,-99.99,,2013-01-12 12:42:00,
2013-01-12 05:52:00,18.0,8.0,30.20,West,263,3.0,-999.0,63,-99.99,,,-99.99,,2013-01-12 12:52:00,
2013-01-12 06:02:00,17.0,7.0,30.21,West,263,1.0,-999.0,64,-99.99,,,-99.99,,2013-01-12 13:02:00,
2013-01-12 06:11:00,17.0,7.0,30.21,West,263,1.0,-999.0,64,-99.99,,,-99.99,,2013-01-12 13:11:00,
2013-01-12 06:22:00,18.0,7.0,30.22,West,260,3.0,-999.0,61,-99.99,,,-99.99,,2013-01-12 13:22:00,
2013-01-12 06:32:00,18.0,6.0,30.22,West,260,3.0,-999.0,60,-99.99,,,-99.99,,2013-01-12 13:32:00,
2013-01-12 06:42:00,18.0,6.0,30.22,West,260,3.0,-999.0,60,-99.99,,,-99.99,,2013-01-12 13:42:00,
2013-01-12 06:53:00,19.0,7.0,30.21,West,260,1.0,-999.0,59,-99.99,,,-99.99,,2013-01-12 13:53:00,
2013-01-12 07:01:00,18.0,6.0,30.22,West,260,2.0,-999.0,60,-99.99,,,-99.99,,2013-01-12 14:01:00,
2013-01-12 07:12:00,18.0,6.0,30.22,West,260,2.0,-999.0,60,-99.99,,,-99.99,,2013-01-12 14:12:00,
2013-01-12 07:22:00,16.0,6.0,30.23,West,260,2.0,-999.0,65,-99.99,,,-99.99,,2013-01-12 14:22:00,
2013-01-12 07:32:00,15.0,6.0,30.24,North,-999,-999.0,-999.0,67,-99.99,,,-99.99,,2013-01-12 14:32:00,
2013-01-12 07:42:00,15.0,6.0,30.24,North,-999,-999.0,-999.0,67,-99.99,,,-99.99,,2013-01-12 14:42:00,
2013-01-12 08:33:00,25.0,10.0,30.25,West,260,0.0,-999.0,52,-99.99,,,-99.99,,2013-01-12 15:33:00,
2013-01-12 08:53:00,27.0,7.0,30.27,West,260,0.0,-999.0,42,-99.99,,,-99.99,,2013-01-12 15:53:00,
2013-01-12 09:02:00,30.0,8.0,30.25,NNW,336,1.0,-999.0,38,-99.99,,,-99.99,,2013-01-12 16:02:00,
2013-01-12 09:22:00,29.0,8.0,30.27,NNE,25,1.0,-999.0,41,-99.99,,,-99.99,,2013-01-12 16:22:00,
2013-01-12 09:32:00,29.0,8.0,30.27,North,-999,-999.0,-999.0,40,-99.99,,,-99.99,,2013-01-12 16:32:00,
2013-01-12 09:42:00,30.0,9.0,30.26,ENE,61,4.0,-999.0,41,-99.99,,,-99.99,,2013-01-12 16:42:00,
2013-01-12 09:53:00,30.0,9.0,30.26,ENE,61,4.0,-999.0,41,-99.99,,,-99.99,,2013-01-12 16:53:00,
2013-01-12 10:02:00,30.0,6.0,30.27,ENE,71,4.0,-999.0,36,-99.99,,,-99.99,,2013-01-12 17:02:00,
2013-01-12 10:12:00,30.0,6.0,30.27,ENE,71,4.0,-999.0,36,-99.99,,,-99.99,,2013-01-12 17:12:00,
2013-01-12 10:22:00,32.0,7.0,30.26,NE,56,4.0,-999.0,35,-99.99,,,-99.99,,2013-01-12 17:22:00,
2013-01-12 10:32:00,32.0,6.0,30.27,ENE,61,4.0,-999.0,33,-99.99,,,-99.99,,2013-01-12 17:32:00,
2013-01-12 10:42:00,32.0,6.0,30.27,ENE,61,4.0,-999.0,33,-99.99,,,-99.99,,2013-01-12 17:42:00,
2013-01-12 10:53:00,31.0,5.0,30.28,NE,47,4.0,-999.0,32,-99.99,,,-99.99,,2013-01-12 17:53:00,
2013-01-12 11:02:00,33.0,5.0,30.26,North,7,4.0,-999.0,30,-99.99,,,-99.99,,2013-01-12 18:02:00,
2013-01-12 11:12:00,33.0,5.0,30.26,North,7,4.0,-999.0,30,-99.99,,,-99.99,,2013-01-12 18:12:00,
2013-01-12 11:22:00,35.0,4.0,30.28,WSW,250,2.0,-999.0,27,-99.99,,,-99.99,,2013-01-12 18:22:00,
2013-01-12 11:33:00,35.0,4.0,30.28,SSW,212,7.0,-999.0,27,-99.99,,,-99.99,,2013-01-12 18:33:00,
2013-01-12 11:42:00,35.0,4.0,30.28,SSW,212,7.0,-999.0,27,-99.99,,,-99.99,,2013-01-12 18:42:00,
2013-01-12 11:52:00,35.0,4.0,30.28,West,260,10.0,-999.0,27,-99.99,,,-99.99,,2013-01-12 18:52:00,
2013-01-12 12:02:00,35.0,4.0,30.25,WNW,295,7.0,-999.0,27,-99.99,,,-99.99,,2013-01-12 19:02:00,
2013-01-12 12:12:00,35.0,4.0,30.25,WNW,295,7.0,-999.0,27,-99.99,,,-99.99,,2013-01-12 19:12:00,
2013-01-12 12:22:00,34.0,4.0,30.26,NW,323,5.0,-999.0,28,-99.99,,,-99.99,,2013-01-12 19:22:00,
2013-01-12 12:32:00,34.0,4.0,30.24,NNW,329,8.0,-999.0,27,-99.99,,,-99.99,,2013-01-12 19:32:00,
2013-01-12 12:42:00,34.0,4.0,30.24,NNW,329,8.0,-999.0,27,-99.99,,,-99.99,,2013-01-12 19:42:00,
2013-01-12 12:52:00,34.0,4.0,30.26,NW,326,9.0,-999.0,28,-99.99,,,-99.99,,2013-01-12 19:52:00,
2013-01-12 13:02:00,34.0,4.0,30.26,West,281,13.0,-999.0,27,-99.99,,,-99.99,,2013-01-12 20:02:00,
2013-01-12 13:12:00,35.0,4.0,30.23,WNW,288,8.0,-999.0,26,-99.99,,,-99.99,,2013-01-12 20:12:00,
2013-01-12 13:22:00,35.0,4.0,30.23,WNW,288,8.0,-999.0,26,-99.99,,,-99.99,,2013-01-12 20:22:00,
2013-01-12 13:32:00,34.0,3.0,30.26,NNW,328,9.0,-999.0,26,-99.99,,,-99.99,,2013-01-12 20:32:00,
2013-01-12 13:42:00,34.0,3.0,30.26,NNW,328,9.0,-999.0,26,-99.99,,,-99.99,,2013-01-12 20:42:00,
2013-01-12 13:53:00,36.0,4.0,30.25,NNW,329,7.0,-999.0,25,-99.99,,,-99.99,,2013-01-12 20:53:00,
2013-01-12 14:02:00,36.0,2.0,30.24,NW,323,11.0,-999.0,23,-99.99,,,-99.99,,2013-01-12 21:02:00,
2013-01-12 14:12:00,35.0,2.0,30.24,NW,312,10.0,-999.0,24,-99.99,,,-99.99,,2013-01-12 21:12:00,
2013-01-12 14:22:00,35.0,2.0,30.24,NW,312,10.0,-999.0,24,-99.99,,,-99.99,,2013-01-12 21:22:00,
2013-01-12 14:32:00,35.0,3.0,30.26,WNW,289,13.0,13.0,25,0.00,,,0.00,,2013-01-12 21:32:00,
2013-01-12 14:42:00,35.0,3.0,30.26,WNW,289,13.0,13.0,25,0.00,,,0.00,,2013-01-12 21:42:00,
2013-01-12 14:53:00,35.0,-1.0,30.25,WNW,294,11.0,-999.0,21,-99.99,,,-99.99,,2013-01-12 21:53:00,
2013-01-12 15:02:00,36.0,1.0,30.26,NNW,342,9.0,-999.0,22,-99.99,,,-99.99,,2013-01-12 22:02:00,
2013-01-12 15:12:00,36.0,1.0,30.26,NNW,342,9.0,-999.0,22,-99.99,,,-99.99,,2013-01-12 22:12:00,
2013-01-12 15:22:00,36.0,1.0,30.24,West,281,10.0,-999.0,22,-99.99,,,-99.99,,2013-01-12 22:22:00,
2013-01-12 15:32:00,35.0,0.0,30.24,West,270,10.0,-999.0,22,-99.99,,,-99.99,,2013-01-12 22:32:00,
2013-01-12 15:42:00,35.0,0.0,30.24,West,270,10.0,-999.0,22,-99.99,,,-99.99,,2013-01-12 22:42:00,
2013-01-12 15:52:00,36.0,1.0,30.26,NW,311,9.0,-999.0,22,-99.99,,,-99.99,,2013-01-12 22:52:00,
2013-01-12 16:02:00,35.0,-2.0,30.24,West,272,12.0,-999.0,20,-99.99,,,-99.99,,2013-01-12 23:02:00,
2013-01-12 16:12:00,35.0,-1.0,30.24,WNW,287,9.0,-999.0,21,-99.99,,,-99.99,,2013-01-12 23:12:00,
2013-01-12 16:22:00,35.0,-1.0,30.24,WNW,287,9.0,-999.0,21,-99.99,,,-99.99,,2013-01-12 23:22:00,
2013-01-12 16:32:00,35.0,0.0,30.27,WNW,289,9.0,-999.0,22,-99.99,,,-99.99,,2013-01-12 23:32:00,
2013-01-12 16:42:00,35.0,0.0,30.27,WNW,289,9.0,-999.0,22,-99.99,,,-99.99,,2013-01-12 23:42:00,
2013-01-12 16:53:00,34.0,-2.0,30.27,NW,319,6.0,-999.0,21,-99.99,,,-99.99,,2013-01-12 23:53:00,
2013-01-12 17:02:00,34.0,-1.0,30.27,NW,318,7.0,-999.0,22,-99.99,,,-99.99,,2013-01-13 00:02:00,
2013-01-12 17:12:00,34.0,-1.0,30.27,NW,318,7.0,-999.0,22,-99.99,,,-99.99,,2013-01-13 00:12:00,
2013-01-12 17:22:00,33.0,-1.0,30.27,NW,312,5.0,-999.0,23,-99.99,,,-99.99,,2013-01-13 00:22:00,
2013-01-12 17:32:00,32.0,0.0,30.26,WNW,301,7.0,-999.0,25,-99.99,,,-99.99,,2013-01-13 00:32:00,
2013-01-12 17:42:00,32.0,0.0,30.26,WNW,301,7.0,-999.0,25,-99.99,,,-99.99,,2013-01-13 00:42:00,
2013-01-12 17:52:00,32.0,0.0,30.26,WNW,295,6.0,-999.0,25,-99.99,,,-99.99,,2013-01-13 00:52:00,
2013-01-12 18:02:00,32.0,2.0,30.26,WSW,253,6.0,-999.0,27,-99.99,,,-99.99,,2013-01-13 01:02:00,
2013-01-12 18:11:00,32.0,2.0,30.26,WSW,253,6.0,-999.0,27,-99.99,,,-99.99,,2013-01-13 01:11:00,
2013-01-12 18:22:00,32.0,3.0,30.27,WNW,288,7.0,-999.0,28,-99.99,,,-99.99,,2013-01-13 01:22:00,
2013-01-12 18:32:00,31.0,2.0,30.28,WNW,291,7.0,-999.0,28,-99.99,,,-99.99,,2013-01-13 01:32:00,
2013-01-12 18:42:00,31.0,2.0,30.28,WNW,291,7.0,-999.0,28,-99.99,,,-99.99,,2013-01-13 01:42:00,
2013-01-12 18:52:00,31.0,2.0,30.28,WNW,301,4.0,-999.0,28,-99.99,,,-99.99,,2013-01-13 01:52:00,
2013-01-12 19:01:00,30.0,2.0,30.27,WNW,295,4.0,-999.0,29,-99.99,,,-99.99,,2013-01-13 02:01:00,
2013-01-12 19:12:00,30.0,2.0,30.27,WNW,295,4.0,-999.0,29,-99.99,,,-99.99,,2013-01-13 02:12:00,
2013-01-12 19:22:00,29.0,2.0,30.28,NW,308,2.0,-999.0,31,-99.99,,,-99.99,,2013-01-13 02:22:00,
2013-01-12 19:32:00,27.0,3.0,30.30,NW,308,0.0,-999.0,35,-99.99,,,-99.99,,2013-01-13 02:32:00,
2013-01-12 19:42:00,27.0,3.0,30.30,NW,308,0.0,-999.0,35,-99.99,,,-99.99,,2013-01-13 02:42:00,
2013-01-12 19:53:00,25.0,4.0,30.30,NW,306,2.0,-999.0,40,-99.99,,,-99.99,,2013-01-13 02:53:00,
2013-01-12 20:02:00,24.0,4.0,30.30,NW,306,2.0,-999.0,41,-99.99,,,-99.99,,2013-01-13 03:02:00,
2013-01-12 20:11:00,24.0,4.0,30.30,NW,306,2.0,-999.0,41,-99.99,,,-99.99,,2013-01-13 03:11:00,
2013-01-12 20:22:00,25.0,4.0,30.29,NW,306,2.0,-999.0,39,-99.99,,,-99.99,,2013-01-13 03:22:00,
2013-01-12 20:32:00,24.0,4.0,30.30,WNW,299,3.0,-999.0,41,-99.99,,,-99.99,,2013-01-13 03:32:00,
2013-01-12 20:42:00,24.0,4.0,30.30,WNW,299,3.0,-999.0,41,-99.99,,,-99.99,,2013-01-13 03:42:00,
2013-01-12 20:52:00,24.0,5.0,30.31,WNW,291,3.0,-999.0,43,-99.99,,,-99.99,,2013-01-13 03:52:00,
2013-01-12 21:02:00,23.0,4.0,30.31,WNW,292,2.0,-999.0,44,-99.99,,,-99.99,,2013-01-13 04:02:00,
2013-01-12 21:12:00,23.0,4.0,30.31,WNW,292,2.0,-999.0,44,-99.99,,,-99.99,,2013-01-13 04:12:00,
2013-01-12 21:22:00,23.0,4.0,30.32,WNW,292,2.0,-999.0,43,-99.99,,,-99.99,,2013-01-13 04:22:00,
2013-01-12 21:32:00,23.0,4.0,30.31,WNW,292,2.0,-999.0,44,-99.99,,,-99.99,,2013-01-13 04:32:00,
2013-01-12 21:42:00,23.0,4.0,30.31,WNW,292,2.0,-999.0,44,-99.99,,,-99.99,,2013-01-13 04:42:00,
2013-01-12 21:52:00,23.0,4.0,30.31,WNW,294,2.0,-999.0,44,-99.99,,,-99.99,,2013-01-13 04:52:00,
2013-01-12 22:03:00,22.0,5.0,30.31,WNW,294,2.0,-999.0,47,-99.99,,,-99.99,,2013-01-13 05:03:00,
2013-01-12 22:12:00,22.0,5.0,30.31,WNW,294,2.0,-999.0,47,-99.99,,,-99.99,,2013-01-13 05:12:00,
2013-01-12 22:22:00,22.0,5.0,30.33,WNW,294,2.0,-999.0,47,-99.99,,,-99.99,,2013-01-13 05:22:00,
2013-01-12 22:32:00,23.0,5.0,30.33,WNW,294,1.0,-999.0,46,-99.99,,,-99.99,,2013-01-13 05:32:00,
2013-01-12 22:42:00,23.0,5.0,30.33,WNW,294,1.0,-999.0,46,-99.99,,,-99.99,,2013-01-13 05:42:00,
2013-01-12 22:52:00,22.0,4.0,30.33,WNW,294,1.0,-999.0,46,-99.99,,,-99.99,,2013-01-13 05:52:00,
2013-01-12 23:02:00,21.0,4.0,30.32,WNW,294,2.0,-999.0,47,-99.99,,,-99.99,,2013-01-13 06:02:00,
2013-01-12 23:12:00,19.0,5.0,30.33,WNW,294,2.0,-999.0,53,-99.99,,,-99.99,,2013-01-13 06:12:00,
2013-01-12 23:22:00,19.0,5.0,30.33,WNW,294,2.0,-999.0,53,-99.99,,,-99.99,,2013-01-13 06:22:00,
2013-01-12 23:32:00,19.0,6.0,30.32,WNW,294,2.0,-999.0,55,-99.99,,,-99.99,,2013-01-13 06:32:00,
2013-01-12 23:42:00,19.0,6.0,30.32,WNW,294,2.0,-999.0,55,-99.99,,,-99.99,,2013-01-13 06:42:00,
2013-01-12 23:52:00,17.0,6.0,30.34,WNW,294,3.0,-999.0,60,-99.99,,,-99.99,,2013-01-13 06:52:00,